Home   Weather   42°16'N, 84°27'W   Past weeks
Flag for USA

Past Weather in 42°16'N, 84°27'W, USA — Yesterday and Last 2 Weeks

Now
23 °F

Sunny.


Feels Like: 18 °F
Forecast: 45 / 22 °F
Wind: 3 mph from Northwest

Location: Capital City Airport

Current Time: Mar 26, 2019 at 8:29:52 am

Latest Report: Mar 26, 2019 at 7:53 am


Visibility: 10 mi

Pressure: 30.47 "Hg

Humidity: 63%

Dew Point: 12 °F

Location of 42°16'N, 84°27'WLocation

Past Weather in 42°16'N, 84°27'W — Graph

°F

42°16'N, 84°27'W Temperature Yesterday

Maximum temperature yesterday: 43 °F (at 3:53 pm)
Minimum temperature yesterday: 28 °F (at 3:53 am)
Average temperature yesterday: 34 °F

High & Low Weather Summary for the Past Weeks

 TemperatureHumidityPressure
High62 °F (Mar 14, 6:15 pm)100% (Mar 20, 9:53 pm)30.45 "Hg (Mar 20, 9:53 pm)
Low19 °F (Mar 17, 4:53 am)28% (Mar 25, 6:53 pm)29.32 "Hg (Mar 14, 6:15 pm)
Average36 °F75%30.08 "Hg
* Reported Mar 11 6:53 am — Mar 26 6:53 am, 42°16'N, 84°27'W. Weather by CustomWeather, © 2019

Note: Actual official high and low records may vary slightly from our data, if they occured in-between our weather recording intervals... More about our weather records

Advertising

42°16'N, 84°27'W Weather History for the Previous 24 Hours

Scroll right to see more
 ConditionsComfort  
Time TempWeatherWind HumidityBarometerVisibility
6:53 am
Tue, Mar 26
24 °FClear.5 mph60%30.45 "Hg10 mi
5:53 am25 °FClear.5 mph55%30.42 "Hg10 mi
4:53 am25 °FClear.6 mph53%30.41 "Hg10 mi
3:53 am26 °FClear.6 mph52%30.40 "Hg10 mi
2:53 am26 °FClear.6 mph55%30.40 "Hg10 mi
1:53 am27 °FClear.5 mph51%30.38 "Hg10 mi
12:53 am28 °FClear.3 mph49%30.37 "Hg10 mi
11:53 pm
Mon, Mar 25
29 °FClear.5 mph43%30.37 "Hg10 mi
10:53 pm31 °FClear.8 mph36%30.36 "Hg10 mi
9:53 pm33 °FClear.10 mph33%30.34 "Hg10 mi
8:53 pm36 °FClear.6 mph35%30.31 "Hg10 mi
7:53 pm38 °FSunny.5 mph31%30.29 "Hg10 mi
6:53 pm41 °FSunny.8 mph28%30.28 "Hg10 mi
5:53 pm42 °FSunny.8 mph36%30.27 "Hg10 mi
4:53 pm43 °FSunny.9 mph31%30.27 "Hg10 mi
3:53 pm43 °FSunny.9 mph35%30.28 "Hg10 mi
2:53 pm42 °FSunny.9 mph36%30.29 "Hg10 mi
1:53 pm41 °FSunny.10 mph38%30.30 "Hg10 mi
12:53 pm40 °FSunny.10 mph47%30.30 "Hg10 mi
11:53 am36 °FSunny.13 mph50%30.30 "Hg10 mi
10:53 am35 °FSunny.13 mph54%30.30 "Hg10 mi
9:53 am32 °FSunny.15 mph66%30.29 "Hg10 mi
8:53 am30 °FSunny.12 mph75%30.28 "Hg10 mi
Weather by CustomWeather, © 2019

See weather overview